This is the latest recevied weather packets stored in our database for station/object KD8DLP-13. If no packets are shown the sender has not sent any weather packets the latest 10 day(s).
| Time | Temp. | Humidity | Pressure | Rain* | Wind** | Luminosity | Snow |
|---|---|---|---|---|---|---|---|
| 1777682818 | 5° C | 55% | 1018.4 hPa | 0 mm | - | 2 W/m² | - |
| 1777682515 | 5° C | 54% | 1018.5 hPa | 0 mm | - | 3 W/m² | - |
| 1777682213 | 5° C | 54% | 1018.4 hPa | 0 mm | - | 5 W/m² | - |
| 1777681910 | 5° C | 53% | 1018.4 hPa | 0 mm | - | 7 W/m² | - |
| 1777681606 | 5° C | 52% | 1018.4 hPa | 0 mm | - | 9 W/m² | - |
| 1777681304 | 5.56° C | 52% | 1018.1 hPa | 0 mm | - | 11 W/m² | - |
| 1777681001 | 5.56° C | 52% | 1018.3 hPa | 0 mm | - | 14 W/m² | - |
| 1777680698 | 5.56° C | 53% | 1018.2 hPa | 0 mm | - | 17 W/m² | - |
| 1777680396 | 5.56° C | 53% | 1018.1 hPa | 0 mm | - | 21 W/m² | - |
| 1777680094 | 5.56° C | 53% | 1018 hPa | 0 mm | - | 26 W/m² | - |
| 1777679789 | 5.56° C | 53% | 1018.1 hPa | 0 mm | - | 30 W/m² | - |
| 1777679486 | 5.56° C | 53% | 1017.9 hPa | 0 mm | - | 33 W/m² | - |
| 1777679181 | 6.11° C | 54% | 1017.9 hPa | 0 mm | - | 36 W/m² | - |
| 1777678879 | 6.11° C | 54% | 1018 hPa | 0 mm | - | 39 W/m² | - |
| 1777678577 | 6.11° C | 53% | 1017.8 hPa | 0 mm | - | 43 W/m² | - |
| 1777678274 | 6.67° C | 53% | 1017.8 hPa | 0 mm | - | 47 W/m² | - |
| 1777677969 | 6.67° C | 54% | 1018 hPa | 0 mm | - | 54 W/m² | - |
| 1777677667 | 6.67° C | 53% | 1017.9 hPa | 0 mm | - | 59 W/m² | - |
| 1777677365 | 6.67° C | 53% | 1017.8 hPa | 0 mm | - | 63 W/m² | - |
| 1777677063 | 6.67° C | 52% | 1017.5 hPa | 0 mm | - | 49 W/m² | - |
| 1777676761 | 6.67° C | 51% | 1017.6 hPa | 0 mm | - | 37 W/m² | - |
| 1777676459 | 6.67° C | 50% | 1017.6 hPa | 0 mm | - | 50 W/m² | - |
| 1777676156 | 7.22° C | 51% | 1017.4 hPa | 0 mm | - | 87 W/m² | - |
| 1777675852 | 7.22° C | 52% | 1017.4 hPa | 0 mm | - | 114 W/m² | - |
| 1777675550 | 7.78° C | 51% | 1017.5 hPa | 0 mm | - | 121 W/m² | - |
* Rain latest hour (hover to see other rain measurements)
** Current wind speed in m/s (hover to see current wind gust speed)